Date String (YYYY-MM-DD hh:mm:ss) UTC,Instrument flags,absolute air pressure of the measurement (hPa),sample flow rate (lpm),inlet stack bypass flow (lpm),air temperature of the measurement (°C),ambient temperature measured by the external sensor (°C),aerosol sample conditioner tube jacket temperature (°C),OPC LED temperature (°C),internal box temperature (°C),relative humidity of the measurement (%),span deviation,mass concentration of particles derived from Lorenz-Mie calculation of OPC scattering (μg/m³),mass concentration of particles derived from Lorenz-Mie calculation of OPC scattering (μg/m³),mass concentration of particles derived from Lorenz-Mie calculation of OPC scattering (μg/m³)
DateTimeUTC,F1_M11,P_M11,Q1_M11,Q2_M11,T1_M11,T2_M11,T3_M11,T4_M11,T5_M11,U1_M11,ZSPAN_M11,X0_M11,X2_M11,X1_M11
2023-10-30 15:00:00,SystemResetWarning,0835.8,5.00,000.00,021.9,021.2,000.0,030.1,023.4,9.0,0000.0,0005.23,0003.48,0003.33
2023-10-30 15:01:00,SystemResetWarning,0835.9,5.00,000.00,021.8,021.0,000.0,030.1,023.4,8.8,0000.0,0005.24,0003.48,0003.33
2023-10-30 15:02:00,SystemResetWarning,0835.8,5.00,000.00,021.8,020.9,000.0,030.1,023.4,8.6,0000.0,0005.30,0003.49,0003.34
2023-10-30 15:03:00,SystemResetWarning,0835.8,4.99,000.00,021.8,020.9,000.0,030.1,023.3,8.8,0000.0,0005.35,0003.51,0003.35
2023-10-30 15:04:00,SystemResetWarning,0835.7,5.00,000.00,021.8,020.8,000.0,030.1,023.3,9.2,0000.0,0005.41,0003.52,0003.36
2023-10-30 15:05:00,SystemResetWarning,0835.7,5.01,000.00,021.8,020.7,000.0,030.1,023.2,9.1,0000.0,0005.45,0003.53,0003.35
2023-10-30 15:06:00,SystemResetWarning,0835.8,5.01,000.00,021.7,020.6,000.0,030.1,023.2,9.2,0000.0,0005.43,0003.52,0003.35
2023-10-30 15:07:00,SystemResetWarning,0835.8,5.01,000.00,021.7,020.6,000.0,030.1,023.2,9.7,0000.0,0005.29,0003.51,0003.34
2023-10-30 15:08:00,SystemResetWarning,0835.8,5.01,000.00,021.7,020.6,000.0,030.1,023.1,9.7,0000.0,0005.20,0003.50,0003.34
2023-10-30 15:09:00,SystemResetWarning,0835.8,5.00,000.00,021.7,020.5,000.0,030.1,023.1,9.8,0000.0,0004.48,0003.49,0003.34
2023-10-30 15:10:00,SystemResetWarning,0835.8,5.00,000.00,021.7,020.5,000.0,030.1,023.1,9.9,0000.0,0004.90,0003.49,0003.34
2023-10-30 15:11:00,SystemResetWarning,0835.8,4.99,000.00,021.7,020.5,000.0,030.1,023.1,10.0,0000.0,0005.06,0003.50,0003.34
2023-10-30 15:12:00,SystemResetWarning,0835.8,5.00,000.00,021.7,020.4,000.0,030.1,023.1,10.0,0000.0,0005.12,0003.52,0003.35
2023-10-30 15:13:00,SystemResetWarning,0835.8,5.00,000.00,021.7,020.4,000.0,030.1,023.1,9.9,0000.0,0005.07,0003.51,0003.34
2023-10-30 15:14:00,SystemResetWarning,0835.8,5.01,000.00,021.7,020.4,000.0,030.1,023.1,9.7,0000.0,0005.09,0003.50,0003.32
2023-10-30 15:15:00,SystemResetWarning,0835.8,5.01,000.00,021.7,020.4,000.0,030.1,023.1,9.4,0000.0,0005.14,0003.51,0003.32
2023-10-30 15:16:00,SystemResetWarning,0835.8,5.01,000.00,021.7,020.4,000.0,030.1,023.1,9.5,0000.0,0005.13,0003.50,0003.31
2023-10-30 15:17:00,SystemResetWarning,0835.8,5.00,000.00,021.7,020.5,000.0,030.1,023.1,9.5,0000.0,0005.17,0003.51,0003.31
2023-10-30 15:18:00,SystemResetWarning,0835.8,5.00,000.00,021.7,020.5,000.0,030.1,023.1,9.4,0000.0,0005.25,0003.51,0003.31
2023-10-30 15:19:00,SystemResetWarning,0835.8,4.99,000.00,021.7,020.4,000.0,030.1,023.1,9.6,0000.0,0005.34,0003.52,0003.31
2023-10-30 15:20:00,SystemResetWarning,0835.8,4.99,000.00,021.7,020.4,000.0,030.1,023.1,9.7,0000.0,0005.49,0003.55,0003.32
2023-10-30 15:21:00,SystemResetWarning,0835.8,5.00,000.00,021.7,020.4,000.0,030.1,023.1,9.7,0000.0,0005.28,0003.56,0003.32
2023-10-30 15:22:00,SystemResetWarning,0835.8,5.01,000.00,021.7,020.4,000.0,030.0,023.1,9.6,0000.0,0004.86,0003.54,0003.31
2023-10-30 15:23:00,SystemResetWarning,0835.8,5.01,000.00,021.7,020.4,000.0,030.0,023.1,9.7,0000.0,0004.77,0003.53,0003.31
2023-10-30 15:24:00,SystemResetWarning,0835.8,5.01,000.00,021.7,020.4,000.0,030.0,023.0,9.8,0000.0,0004.88,0003.53,0003.32
2023-10-30 15:25:00,SystemResetWarning,0835.8,4.99,000.00,021.7,020.3,000.0,030.0,023.0,10.0,0000.0,0004.84,0003.53,0003.32
2023-10-30 15:26:00,SystemResetWarning,0835.8,4.99,000.00,021.6,020.3,000.0,030.0,023.0,10.0,0000.0,0004.71,0003.51,0003.32
2023-10-30 15:27:00,SystemResetWarning,0835.8,5.01,000.00,021.6,020.2,000.0,030.0,022.8,10.2,0000.0,0005.04,0003.51,0003.33
2023-10-30 15:28:00,SystemResetWarning,0835.8,5.00,000.00,021.5,020.0,000.0,030.0,022.6,10.3,0000.0,0005.03,0003.51,0003.35
2023-10-30 15:29:00,SystemResetWarning,0835.8,5.00,000.00,021.5,019.9,000.0,030.0,022.7,10.2,0000.0,0005.05,0003.52,0003.36
2023-10-30 15:30:00,SystemResetWarning,0835.7,5.00,000.00,021.5,020.0,000.0,029.9,022.7,10.2,0000.0,0005.17,0003.54,0003.38
2023-10-30 15:31:00,SystemResetWarning,0835.7,5.00,000.00,021.5,020.0,000.0,029.9,022.8,10.2,0000.0,0005.25,0003.57,0003.40
2023-10-30 15:32:00,SystemResetWarning,0835.7,5.00,000.00,021.5,020.0,000.0,029.9,022.8,10.2,0000.0,0005.20,0003.58,0003.41
2023-10-30 15:33:00,SystemResetWarning,0835.8,5.01,000.00,021.5,020.0,000.0,029.9,022.8,10.2,0000.0,0005.31,0003.62,0003.44
2023-10-30 15:34:00,SystemResetWarning,0835.7,5.00,000.00,021.5,020.1,000.0,029.9,022.8,10.3,0000.0,0006.25,0003.64,0003.47
2023-10-30 15:35:00,SystemResetWarning,0835.7,4.99,000.00,021.5,020.1,000.0,029.9,022.8,10.4,0000.0,0006.84,0003.67,0003.49
2023-10-30 15:36:00,SystemResetWarning,0835.8,4.99,000.00,021.4,020.1,000.0,029.9,022.7,10.2,0000.0,0006.91,0003.70,0003.50
2023-10-30 15:37:00,SystemResetWarning,0835.8,5.00,000.00,021.4,020.0,000.0,029.9,022.6,10.4,0000.0,0007.76,0003.72,0003.52
2023-10-30 15:38:00,SystemResetWarning,0835.7,5.01,000.00,021.4,020.0,000.0,029.8,022.7,10.2,0000.0,0007.62,0003.73,0003.52
2023-10-30 15:39:00,SystemResetWarning,0835.6,5.00,000.00,021.4,020.0,000.0,029.8,022.7,10.1,0000.0,0007.64,0003.74,0003.52
2023-10-30 15:40:00,SystemResetWarning,0835.7,5.01,000.00,021.4,020.0,000.0,029.8,022.8,10.3,0000.0,0007.70,0003.77,0003.53
2023-10-30 15:41:00,SystemResetWarning,0835.7,4.99,000.00,021.4,020.0,000.0,029.8,022.8,10.4,0000.0,0007.67,0003.77,0003.54
2023-10-30 15:42:00,SystemResetWarning,0835.6,4.99,000.00,021.4,020.1,000.0,029.8,022.8,10.4,0000.0,0007.64,0003.75,0003.53
2023-10-30 15:43:00,SystemResetWarning,0835.6,5.00,000.00,021.4,020.1,000.0,029.8,022.8,10.2,0000.0,0007.66,0003.76,0003.54
2023-10-30 15:44:00,SystemResetWarning,0835.6,5.01,000.00,021.4,020.2,000.0,029.8,022.9,10.5,0000.0,0007.91,0003.78,0003.55
2023-10-30 15:45:00,SystemResetWarning,0835.6,5.01,000.00,021.4,020.2,000.0,029.8,022.9,10.4,0000.0,0007.93,0003.83,0003.58
2023-10-30 15:46:00,SystemResetWarning,0835.6,4.99,000.00,021.5,020.3,000.0,029.8,023.0,10.4,0000.0,0007.55,0003.90,0003.62
2023-10-30 15:47:00,SystemResetWarning,0835.6,4.99,000.00,021.5,020.3,000.0,029.8,023.0,10.4,0000.0,0007.69,0004.01,0003.73
2023-10-30 15:48:00,SystemResetWarning,0835.6,5.00,000.00,021.5,020.3,000.0,029.8,023.0,10.4,0000.0,0007.31,0004.13,0003.84
2023-10-30 15:49:00,SystemResetWarning,0835.6,5.01,000.00,021.5,020.4,000.0,029.8,023.0,10.5,0000.0,0007.48,0004.27,0003.95
2023-10-30 15:50:00,SystemResetWarning,0835.5,5.01,000.00,021.5,020.4,000.0,029.8,023.0,10.6,0000.0,0007.66,0004.39,0004.04
2023-10-30 15:51:00,SystemResetWarning,0835.6,5.01,000.00,021.5,020.4,000.0,029.8,023.0,10.7,0000.0,0008.03,0004.45,0004.10
2023-10-30 15:52:00,SystemResetWarning,0835.6,4.99,000.00,021.5,020.4,000.0,029.8,023.0,10.6,0000.0,0008.21,0004.55,0004.18
2023-10-30 15:53:00,SystemResetWarning,0835.6,4.99,000.00,021.6,020.4,000.0,029.8,023.1,10.7,0000.0,0008.38,0004.64,0004.26
2023-10-30 15:54:00,SystemResetWarning,0835.6,5.00,000.00,021.6,020.5,000.0,029.8,023.1,10.6,0000.0,0008.51,0004.74,0004.34
2023-10-30 15:55:00,SystemResetWarning,0835.6,5.00,000.00,021.6,020.5,000.0,029.8,023.1,10.5,0000.0,0008.42,0004.81,0004.43
2023-10-30 15:56:00,SystemResetWarning,0835.6,5.00,000.00,021.6,020.5,000.0,029.8,023.2,10.5,0000.0,0008.23,0004.88,0004.50
2023-10-30 15:57:00,SystemResetWarning,0835.6,5.01,000.00,021.6,020.5,000.0,029.9,023.2,10.3,0000.0,0008.23,0004.90,0004.54
2023-10-30 15:58:00,SystemResetWarning,0835.6,5.01,000.00,021.6,020.6,000.0,029.9,023.2,10.2,0000.0,0008.26,0004.91,0004.55
2023-10-30 15:59:00,SystemResetWarning,0835.6,5.00,000.00,021.6,020.6,000.0,029.9,023.2,10.3,0000.0,0008.34,0004.93,0004.55
